Glens Falls, NY

11:01 PM EDT on October 18, 2019 (GMT -0400)
Bennett Memorial

Weather History for KGFL - August, 2019

Change the Weather History Date:

Sunday, August 4, 2019

  Actual Average Record
Temperature  
Mean Temperature 66 °F 69 °F  
Max Temperature 79 °F 80 °F 93 °F (1928)
Min Temperature 53 °F 57 °F 45 °F (1966)
Degree Days  
Heating Degree Days 0 1  
Month to date heating degree days 0 4  
Since 1 June heating degree days 70 115  
Since 1 July heating degree days 0 25  
Cooling Degree Days 1 4  
Month to date cooling degree days 11 16  
Year to date cooling degree days 307 236  
Since 1 June cooling degree days 298 224  
Growing Degree Days 19 (Base 50)    
Moisture  
Dew Point 59 °F    
Average Humidity 70    
Maximum Humidity 100    
Minimum Humidity 40    
Precipitation  
Precipitation 0.00 in 0.13 in 2.41 in (2018)
Month to date precipitation T 0.54  
Year to date precipitation 25.94 22.67  
Sea Level Pressure  
Sea Level Pressure 29.93 in    
Wind  
Wind Speed 4 mph (ENE)    
Max Wind Speed 14 mph    
Max Gust Speed 17 mph    
Visibility 6 miles    
Events Fog    
T = Trace of Precipitation, MM = Missing Value Source: NWS Daily Summary

Daily Weather History Graph

Daily Weather History Graph

Search for Another Location

Airport or City:

Astronomy

Aug. 04, 2019 Rise Set
Actual Time 5:47 AM EDT 8:13 PM EDT
Civil Twilight 5:15 AM EDT 8:45 PM EDT
Nautical Twilight 4:35 AM EDT 9:24 PM EDT
Astronomical Twilight 3:50 AM EDT 10:09 PM EDT
Moon 9:55 AM EDT (8/4) 10:43 PM EDT (8/4)
Length of Visible Light 15h 29m
Length of Day
14h 25m
Waxing Crescent, 18% of the Moon is Illuminated
Aug 4
Waxing Crescent
Aug 7
First Quarter
Aug 15
Full
Aug 23
Last Quarter
Aug 30
New

Hourly Weather History & Observations

Time (EDT) Temp. Dew Point Humidity Pressure Visibility Wind Dir Wind Speed Gust Speed Precip Events Conditions
12:16 AM 62.1 °F 61.0 °F 96% 29.92 in 1.2 mi Calm Calm - N/A   Partly Cloudy
12:23 AM 62.1 °F 61.0 °F 96% 29.92 in 0.5 mi Calm Calm - N/A Fog Fog
12:30 AM 61.0 °F 61.0 °F 100% 29.92 in 1.0 mi Calm Calm - N/A   Clear
12:46 AM 63.0 °F 62.1 °F 97% 29.92 in 3.0 mi SW 3.5 mph - N/A   Clear
12:53 AM 62.1 °F 61.0 °F 96% 29.92 in 9.0 mi Calm Calm - N/A   Clear
1:16 AM 63.0 °F 61.0 °F 93% 29.93 in 2.5 mi Calm Calm - N/A   Clear
1:24 AM 64.0 °F 62.1 °F 93% 29.92 in 10.0 mi SSE 3.5 mph - N/A   Clear
1:53 AM 63.0 °F 61.0 °F 93% 29.92 in 9.0 mi Calm Calm - N/A   Clear
2:07 AM 62.1 °F 60.1 °F 93% 29.92 in 3.0 mi North 3.5 mph - N/A   Partly Cloudy
2:43 AM 60.1 °F 59.0 °F 96% 29.92 in 1.8 mi Calm Calm - N/A   Partly Cloudy
2:53 AM 62.1 °F 61.0 °F 96% 29.92 in 1.8 mi Calm Calm - N/A   Partly Cloudy
3:00 AM 61.0 °F 60.1 °F 97% 29.92 in 7.0 mi Calm Calm - N/A   Scattered Clouds
3:53 AM 61.0 °F 60.1 °F 97% 29.91 in 1.8 mi Calm Calm - N/A   Scattered Clouds
4:05 AM 62.1 °F 60.1 °F 93% 29.91 in 0.8 mi Calm Calm - N/A   Mist
4:19 AM 62.1 °F 61.0 °F 96% 29.91 in 1.0 mi Calm Calm - N/A   Mist
4:27 AM 60.1 °F 60.1 °F 100% 29.91 in 0.2 mi Calm Calm - N/A Fog Fog
4:39 AM 61.0 °F 60.1 °F 97% 29.91 in 0.5 mi Calm Calm - N/A Fog Fog
4:49 AM 60.8 °F 60.8 °F 100% 29.91 in 2.0 mi Calm Calm - N/A   Overcast
4:53 AM 61.0 °F 60.1 °F 97% 29.91 in 0.8 mi Calm Calm - N/A   Overcast
5:04 AM 61.0 °F 60.1 °F 97% 29.92 in 0.5 mi Calm Calm - N/A Fog Fog
5:12 AM 62.1 °F 61.0 °F 96% 29.92 in 2.0 mi Calm Calm - N/A   Overcast
5:25 AM 63.0 °F 62.1 °F 97% 29.92 in 8.0 mi Calm Calm - N/A   Overcast
5:53 AM 62.1 °F 62.1 °F 100% 29.92 in 6.0 mi Calm Calm - N/A   Overcast
6:01 AM 62.1 °F 61.0 °F 96% 29.92 in 6.0 mi Calm Calm - N/A   Overcast
6:41 AM 64.0 °F 63.0 °F 96% 29.93 in 4.0 mi Calm Calm - N/A   Overcast
6:53 AM 64.0 °F 63.0 °F 96% 29.93 in 4.0 mi Calm Calm - N/A   Overcast
7:33 AM 64.9 °F 63.0 °F 93% 29.94 in 10.0 mi ESE 3.5 mph - N/A   Mostly Cloudy
7:53 AM 64.9 °F 63.0 °F 93% 29.95 in 10.0 mi Calm Calm - N/A   Overcast
8:23 AM 66.0 °F 62.1 °F 87% 29.95 in 10.0 mi East 4.6 mph - N/A   Overcast
8:53 AM 66.0 °F 63.0 °F 90% 29.95 in 10.0 mi East 4.6 mph - N/A   Overcast
9:53 AM 66.9 °F 57.0 °F 70% 29.96 in 10.0 mi ENE 9.2 mph - N/A   Overcast
10:53 AM 70.0 °F 57.0 °F 63% 29.96 in 10.0 mi NE 6.9 mph - N/A   Overcast
11:29 AM 73.0 °F 59.0 °F 61% 29.95 in 10.0 mi East 9.2 mph - N/A   Scattered Clouds
11:53 AM 73.9 °F 57.9 °F 57% 29.95 in 10.0 mi Variable 4.6 mph - N/A   Mostly Cloudy
12:53 PM 75.0 °F 57.0 °F 53% 29.93 in 10.0 mi Variable 3.5 mph - N/A   Mostly Cloudy
1:53 PM 75.9 °F 57.0 °F 52% 29.92 in 10.0 mi Calm Calm - N/A   Scattered Clouds
2:53 PM 77.0 °F 55.9 °F 48% 29.91 in 10.0 mi NE 5.8 mph - N/A   Scattered Clouds
3:53 PM 78.1 °F 55.0 °F 45% 29.89 in 10.0 mi ENE 6.9 mph - N/A   Clear
4:53 PM 77.0 °F 54.0 °F 45% 29.90 in 10.0 mi NE 10.4 mph - N/A   Clear
5:53 PM 77.0 °F 52.0 °F 42% 29.90 in 10.0 mi ENE 8.1 mph - N/A   Clear
6:53 PM 75.9 °F 52.0 °F 43% 29.91 in 10.0 mi NE 8.1 mph - N/A   Clear
7:53 PM 72.0 °F 51.1 °F 48% 29.93 in 10.0 mi NNE 10.4 mph - N/A   Clear
8:53 PM 64.0 °F 54.0 °F 70% 29.95 in 10.0 mi Calm Calm - N/A   Clear
9:53 PM 61.0 °F 52.0 °F 72% 29.97 in 10.0 mi Calm Calm - N/A   Clear
10:53 PM 63.0 °F 48.9 °F 60% 29.98 in 10.0 mi North 4.6 mph - N/A   Clear
11:53 PM 53.1 °F 51.1 °F 93% 30.00 in 10.0 mi WSW 3.5 mph - N/A   Clear